Time,TemperatureF,DewpointF,PressureIn,WindDirection,WindDirectionDegrees,WindSpeedMPH,WindSpeedGustMPH,Humidity,HourlyPrecipIn,Conditions,Clouds,dailyrainin,SolarRadiationWatts/m^2,SoftwareType,DateUTC
2013-09-24 00:02:00,51.0,47.0,-100.00,SE,143,5.0,12.0,86,0.00,,,0.00,0.000000,,2013-09-24 05:02:00,
2013-09-24 00:23:00,51.0,47.0,-100.00,SE,143,5.0,12.0,86,0.00,,,0.00,0.000000,,2013-09-24 05:23:00,
2013-09-24 00:34:00,51.0,47.0,-100.00,SE,143,5.0,12.0,86,0.00,,,0.00,0.000000,,2013-09-24 05:34:00,
2013-09-24 00:43:00,51.0,47.0,-100.00,SE,143,5.0,12.0,86,0.00,,,0.00,0.000000,,2013-09-24 05:43:00,
2013-09-24 00:53:00,51.0,47.0,-100.00,SE,143,5.0,12.0,86,0.00,,,0.00,0.000000,,2013-09-24 05:53:00,
2013-09-24 01:02:00,49.0,46.0,-100.00,SSE,154,3.0,9.0,90,0.00,,,0.00,0.000000,,2013-09-24 06:02:00,
2013-09-24 01:42:00,49.0,46.0,-100.00,SSE,154,3.0,9.0,90,0.00,,,0.00,0.000000,,2013-09-24 06:42:00,
2013-09-24 01:52:00,49.0,46.0,-100.00,SSE,154,3.0,9.0,90,0.00,,,0.00,0.000000,,2013-09-24 06:52:00,
2013-09-24 02:02:00,49.0,47.0,-100.00,SSE,148,3.0,8.0,93,0.00,,,0.00,0.000000,,2013-09-24 07:02:00,
2013-09-24 02:22:00,49.0,47.0,-100.00,SSE,148,3.0,8.0,93,0.00,,,0.00,0.000000,,2013-09-24 07:22:00,
2013-09-24 02:32:00,49.0,47.0,-100.00,SSE,148,3.0,8.0,93,0.00,,,0.00,0.000000,,2013-09-24 07:32:00,
2013-09-24 02:43:00,49.0,47.0,-100.00,SSE,148,3.0,8.0,93,0.00,,,0.00,0.000000,,2013-09-24 07:43:00,
2013-09-24 02:52:00,49.0,47.0,-100.00,SSE,148,3.0,8.0,93,0.00,,,0.00,0.000000,,2013-09-24 07:52:00,
2013-09-24 03:23:00,48.0,46.0,-100.00,SSE,153,4.0,10.0,94,0.00,,,-99.99,0.000000,,2013-09-24 08:23:00,
2013-09-24 03:32:00,48.0,46.0,-100.00,SSE,153,4.0,10.0,94,0.00,,,-99.99,0.000000,,2013-09-24 08:32:00,
2013-09-24 03:42:00,48.0,46.0,-100.00,SSE,153,4.0,10.0,94,0.00,,,-99.99,0.000000,,2013-09-24 08:42:00,
2013-09-24 03:52:00,48.0,46.0,-100.00,SSE,153,4.0,10.0,94,0.00,,,-99.99,0.000000,,2013-09-24 08:52:00,
2013-09-24 04:01:00,48.0,46.0,-100.00,SSE,153,4.0,10.0,94,0.00,,,-99.99,0.000000,,2013-09-24 09:01:00,
2013-09-24 04:02:00,47.0,46.0,-100.00,SSE,157,3.0,8.0,96,0.00,,,0.00,0.000000,,2013-09-24 09:02:00,
2013-09-24 04:43:00,47.0,46.0,-100.00,SSE,157,3.0,8.0,96,0.00,,,0.00,0.000000,,2013-09-24 09:43:00,
2013-09-24 04:54:00,47.0,46.0,-100.00,SSE,157,3.0,8.0,96,0.00,,,0.00,0.000000,,2013-09-24 09:54:00,
2013-09-24 05:02:00,44.0,43.0,-100.00,East,100,1.0,5.0,96,0.00,,,0.00,0.000000,,2013-09-24 10:02:00,
2013-09-24 05:42:00,44.0,43.0,-100.00,East,100,1.0,5.0,96,0.00,,,0.00,0.000000,,2013-09-24 10:42:00,
2013-09-24 05:53:00,44.0,43.0,-100.00,East,100,1.0,5.0,96,0.00,,,0.00,0.000000,,2013-09-24 10:53:00,
2013-09-24 06:22:00,43.0,42.0,-100.00,ESE,120,3.0,4.0,98,0.00,,,0.00,0.000000,,2013-09-24 11:22:00,
2013-09-24 06:33:00,43.0,42.0,-100.00,ESE,120,3.0,4.0,98,0.00,,,0.00,0.000000,,2013-09-24 11:33:00,
2013-09-24 06:42:00,43.0,42.0,-100.00,ESE,120,3.0,4.0,98,0.00,,,0.00,0.000000,,2013-09-24 11:42:00,
2013-09-24 06:52:00,43.0,42.0,-100.00,ESE,120,3.0,4.0,98,0.00,,,0.00,0.000000,,2013-09-24 11:52:00,
2013-09-24 07:01:00,43.0,42.0,-100.00,ESE,120,3.0,4.0,98,0.00,,,0.00,0.000000,,2013-09-24 12:01:00,
2013-09-24 07:42:00,40.0,39.0,-100.00,East,97,0.0,5.0,98,0.00,,,0.00,2.000000,,2013-09-24 12:42:00,
2013-09-24 07:52:00,40.0,39.0,-100.00,East,97,0.0,5.0,98,0.00,,,0.00,2.000000,,2013-09-24 12:52:00,
2013-09-24 08:01:00,40.0,39.0,-100.00,East,97,0.0,5.0,98,0.00,,,0.00,2.000000,,2013-09-24 13:01:00,
2013-09-24 08:02:00,44.0,43.0,-100.00,ESE,117,2.0,4.0,98,0.00,,,0.00,45.000000,,2013-09-24 13:02:00,
2013-09-24 08:22:00,44.0,43.0,-100.00,ESE,117,2.0,4.0,98,0.00,,,0.00,45.000000,,2013-09-24 13:22:00,
2013-09-24 08:32:00,44.0,43.0,-100.00,ESE,117,2.0,4.0,98,0.00,,,0.00,45.000000,,2013-09-24 13:32:00,
2013-09-24 08:42:00,44.0,43.0,-100.00,ESE,117,2.0,4.0,98,0.00,,,0.00,45.000000,,2013-09-24 13:42:00,
2013-09-24 08:52:00,44.0,43.0,-100.00,ESE,117,2.0,4.0,98,0.00,,,0.00,45.000000,,2013-09-24 13:52:00,
2013-09-24 09:21:00,53.0,48.0,-100.00,SE,127,4.0,8.0,83,0.00,,,0.00,263.000000,,2013-09-24 14:21:00,
2013-09-24 09:32:00,53.0,48.0,-100.00,SE,127,4.0,8.0,83,0.00,,,0.00,263.000000,,2013-09-24 14:32:00,
2013-09-24 09:42:00,53.0,48.0,-100.00,SE,127,4.0,8.0,83,0.00,,,0.00,263.000000,,2013-09-24 14:42:00,
2013-09-24 09:52:00,53.0,48.0,-100.00,SE,127,4.0,8.0,83,0.00,,,0.00,263.000000,,2013-09-24 14:52:00,
2013-09-24 10:01:00,53.0,48.0,-100.00,SE,127,4.0,8.0,83,0.00,,,0.00,263.000000,,2013-09-24 15:01:00,
2013-09-24 10:02:00,60.0,49.0,-100.00,SSE,149,4.0,10.0,68,0.00,,,0.00,437.000000,,2013-09-24 15:02:00,
2013-09-24 10:43:00,60.0,49.0,-100.00,SSE,149,4.0,10.0,68,0.00,,,0.00,437.000000,,2013-09-24 15:43:00,
2013-09-24 10:54:00,60.0,49.0,-100.00,SSE,149,4.0,10.0,68,0.00,,,0.00,437.000000,,2013-09-24 15:54:00,
2013-09-24 11:02:00,64.0,49.0,-100.00,SE,126,6.0,10.0,59,0.00,,,0.00,601.000000,,2013-09-24 16:02:00,
2013-09-24 11:43:00,64.0,49.0,-100.00,SE,126,6.0,10.0,59,0.00,,,0.00,601.000000,,2013-09-24 16:43:00,
2013-09-24 11:53:00,64.0,49.0,-100.00,SE,126,6.0,10.0,59,0.00,,,0.00,601.000000,,2013-09-24 16:53:00,
2013-09-24 12:02:00,67.0,49.0,-100.00,SE,138,6.0,11.0,52,0.00,,,0.00,716.000000,,2013-09-24 17:02:00,
2013-09-24 12:43:00,67.0,49.0,-100.00,SE,138,6.0,11.0,52,0.00,,,0.00,716.000000,,2013-09-24 17:43:00,
2013-09-24 12:54:00,67.0,49.0,-100.00,SE,138,6.0,11.0,52,0.00,,,0.00,716.000000,,2013-09-24 17:54:00,
2013-09-24 13:02:00,70.0,48.0,-100.00,SSE,149,6.0,11.0,46,0.00,,,0.00,781.000000,,2013-09-24 18:02:00,
2013-09-24 13:22:00,70.0,48.0,-100.00,SSE,149,6.0,11.0,46,0.00,,,0.00,781.000000,,2013-09-24 18:22:00,
2013-09-24 13:32:00,70.0,48.0,-100.00,SSE,149,6.0,11.0,46,0.00,,,0.00,781.000000,,2013-09-24 18:32:00,
2013-09-24 13:42:00,70.0,48.0,-100.00,SSE,149,6.0,11.0,46,0.00,,,0.00,781.000000,,2013-09-24 18:42:00,
2013-09-24 13:52:00,70.0,48.0,-100.00,SSE,149,6.0,11.0,46,0.00,,,0.00,781.000000,,2013-09-24 18:52:00,
2013-09-24 14:02:00,72.0,48.0,-100.00,South,172,5.0,12.0,43,0.00,,,0.00,787.000000,,2013-09-24 19:02:00,
2013-09-24 14:22:00,72.0,48.0,-100.00,South,172,5.0,12.0,43,0.00,,,0.00,787.000000,,2013-09-24 19:22:00,
2013-09-24 14:32:00,72.0,48.0,-100.00,South,172,5.0,12.0,43,0.00,,,0.00,787.000000,,2013-09-24 19:32:00,
2013-09-24 14:42:00,72.0,48.0,-100.00,South,172,5.0,12.0,43,0.00,,,0.00,787.000000,,2013-09-24 19:42:00,
2013-09-24 14:52:00,72.0,48.0,-100.00,South,172,5.0,12.0,43,0.00,,,0.00,787.000000,,2013-09-24 19:52:00,
2013-09-24 15:02:00,74.0,47.0,-100.00,South,189,4.0,12.0,39,0.00,,,0.00,713.000000,,2013-09-24 20:02:00,
2013-09-24 15:22:00,74.0,47.0,-100.00,South,189,4.0,12.0,39,0.00,,,0.00,713.000000,,2013-09-24 20:22:00,
2013-09-24 15:32:00,74.0,47.0,-100.00,South,189,4.0,12.0,39,0.00,,,0.00,713.000000,,2013-09-24 20:32:00,
2013-09-24 15:42:00,74.0,47.0,-100.00,South,189,4.0,12.0,39,0.00,,,0.00,713.000000,,2013-09-24 20:42:00,
2013-09-24 15:52:00,74.0,47.0,-100.00,South,189,4.0,12.0,39,0.00,,,0.00,713.000000,,2013-09-24 20:52:00,
2013-09-24 16:02:00,73.0,48.0,-100.00,SE,146,5.0,11.0,41,0.00,,,0.00,590.000000,,2013-09-24 21:02:00,
2013-09-24 16:44:00,73.0,48.0,-100.00,SE,146,5.0,11.0,41,0.00,,,0.00,590.000000,,2013-09-24 21:44:00,
2013-09-24 16:54:00,73.0,48.0,-100.00,SE,146,5.0,11.0,41,0.00,,,0.00,590.000000,,2013-09-24 21:54:00,
2013-09-24 17:02:00,73.0,49.0,-100.00,SSE,158,3.0,10.0,42,0.00,,,0.00,431.000000,,2013-09-24 22:02:00,
2013-09-24 17:43:00,73.0,49.0,-100.00,SSE,158,3.0,10.0,42,0.00,,,0.00,431.000000,,2013-09-24 22:43:00,
2013-09-24 17:54:00,73.0,49.0,-100.00,SSE,158,3.0,10.0,42,0.00,,,0.00,431.000000,,2013-09-24 22:54:00,
2013-09-24 18:02:00,65.0,52.0,-100.00,SE,131,1.0,8.0,62,0.00,,,0.00,197.000000,,2013-09-24 23:02:00,
2013-09-24 18:43:00,65.0,52.0,-100.00,SE,131,1.0,8.0,62,0.00,,,0.00,197.000000,,2013-09-24 23:43:00,
2013-09-24 18:53:00,65.0,52.0,-100.00,SE,131,1.0,8.0,62,0.00,,,0.00,197.000000,,2013-09-24 23:53:00,
2013-09-24 20:02:00,49.0,48.0,-100.00,NNE,30,0.0,2.0,97,0.00,,,0.00,1.000000,,2013-09-25 01:02:00,
2013-09-24 20:52:00,49.0,48.0,-100.00,NNE,30,0.0,2.0,97,0.00,,,0.00,1.000000,,2013-09-25 01:52:00,
2013-09-24 21:02:00,47.0,46.0,-100.00,ENE,77,0.0,0.0,98,0.00,,,0.00,0.000000,,2013-09-25 02:02:00,
2013-09-24 21:22:00,47.0,46.0,-100.00,ENE,77,0.0,0.0,98,0.00,,,0.00,0.000000,,2013-09-25 02:22:00,
2013-09-24 21:32:00,47.0,46.0,-100.00,ENE,77,0.0,0.0,98,0.00,,,0.00,0.000000,,2013-09-25 02:32:00,
2013-09-24 21:42:00,47.0,46.0,-100.00,ENE,77,0.0,0.0,98,0.00,,,0.00,0.000000,,2013-09-25 02:42:00,
2013-09-24 21:52:00,47.0,46.0,-100.00,ENE,77,0.0,0.0,98,0.00,,,0.00,0.000000,,2013-09-25 02:52:00,
2013-09-24 22:02:00,44.0,44.0,-100.00,ENE,76,0.0,0.0,99,0.00,,,-99.99,0.000000,,2013-09-25 03:02:00,
2013-09-24 22:45:00,44.0,44.0,-100.00,ENE,76,0.0,0.0,99,0.00,,,-99.99,0.000000,,2013-09-25 03:45:00,
2013-09-24 22:55:00,44.0,44.0,-100.00,ENE,76,0.0,0.0,99,0.00,,,-99.99,0.000000,,2013-09-25 03:55:00,
2013-09-24 23:02:00,43.0,43.0,-100.00,ENE,77,0.0,0.0,99,0.00,,,0.00,0.000000,,2013-09-25 04:02:00,
2013-09-24 23:24:00,43.0,43.0,-100.00,ENE,77,0.0,0.0,99,0.00,,,0.00,0.000000,,2013-09-25 04:24:00,
2013-09-24 23:34:00,43.0,43.0,-100.00,ENE,77,0.0,0.0,99,0.00,,,0.00,0.000000,,2013-09-25 04:34:00,
2013-09-24 23:43:00,43.0,43.0,-100.00,ENE,77,0.0,0.0,99,0.00,,,0.00,0.000000,,2013-09-25 04:43:00,
2013-09-24 23:54:00,43.0,43.0,-100.00,ENE,77,0.0,0.0,99,0.00,,,0.00,0.000000,,2013-09-25 04:54:00,